Vorticity
nan nan nan nan nan nan nan nan nan nan nan nan nan nan nan nan nan nan nan nan nan nan nan nan nan nan nan nan nan nan nan nan nan nan nan nan nan nan nan nan nan nan nan
nan 8 7 8 9 9 9 9 8 9 9 9 9 8 9 10 10 9 10 13 14 11 7 9 10 11 8 9 9 11 12 9 11 10 6 11 13 11 10 8 8 8 nan
nan 8 8 8 8 9 8 9 9 10 8 8 9 9 9 9 9 11 9 11 15 14 10 5 8 6 6 7 9 11 10 11 10 11 9 8 12 12 9 10 11 10 nan
nan 9 8 10 10 9 9 10 10 8 8 9 10 9 9 11 6 14 14 8 5 4 9 8 8 6 10 7 10 11 7 9 11 10 9 10 10 10 11 9 7 11 nan
nan 12 10 9 10 9 10 10 9 9 10 11 10 11 11 8 21 15 4 3 7 9 7 6 5 5 10 8 7 7 8 8 10 10 9 10 9 13 11 7 10 10 nan
nan 10 12 11 9 8 9 9 9 9 10 9 9 8 10 17 30 9 -5 1 9 7 2 14 16 9 12 12 4 6 8 9 7 8 10 11 8 7 12 10 10 8 nan
nan 10 9 10 9 9 10 10 8 8 9 9 10 11 10 20 18 7 -1 1 11 10 5 9 12 14 10 13 13 12 10 7 7 8 10 9 11 10 7 7 7 7 nan
nan 8 10 10 10 10 9 8 9 12 12 10 9 10 12 20 17 10 4 -0 7 9 10 11 10 11 11 9 11 12 12 10 10 7 8 10 9 12 8 10 8 4 nan
nan 9 9 9 10 10 10 10 10 10 9 10 9 8 8 15 18 12 6 10 10 10 11 12 8 9 12 9 7 8 9 9 14 12 9 9 10 10 6 7 11 9 nan
nan 11 11 11 11 11 11 9 8 8 7 7 9 11 12 14 17 24 9 6 10 10 12 14 12 9 10 7 5 8 9 12 10 11 12 13 14 13 13 5 6 4 nan
nan 12 12 13 10 9 8 8 9 7 8 9 9 11 12 11 11 23 19 8 13 12 12 12 15 12 10 11 9 6 9 12 10 9 9 11 13 12 13 13 10 7 nan
nan 11 10 10 9 10 9 6 7 9 9 12 14 11 9 6 8 18 20 9 8 12 12 11 14 18 14 11 9 9 10 8 8 10 10 10 10 10 12 14 14 11 nan
nan 9 9 8 10 9 7 8 9 12 13 13 11 11 11 8 5 7 14 12 10 11 10 9 10 14 14 16 14 13 11 9 9 9 9 10 11 11 10 11 13 13 nan
nan 7 9 10 8 8 10 12 13 11 12 13 11 11 10 9 9 8 6 8 12 10 10 16 14 10 10 11 14 17 14 12 11 10 9 10 11 12 10 10 10 11 nan
nan 10 9 11 10 11 13 14 14 16 21 16 13 12 8 10 10 8 8 10 11 10 14 14 14 13 12 11 11 11 11 12 11 10 10 11 9 10 10 9 9 11 nan
nan 11 11 10 11 11 10 2 14 18 11 14 16 13 13 12 11 12 13 12 10 15 16 10 10 12 13 14 12 11 11 10 10 11 11 10 9 10 12 10 10 10 nan
nan 10 11 11 11 11 10 11 3 0 4 5 8 12 17 10 7 13 18 15 10 13 11 9 10 10 10 12 15 16 13 12 11 11 11 11 11 11 12 11 12 11 nan
nan 10 9 10 11 12 12 12 10 11 6 2 4 8 8 8 7 9 17 14 9 9 9 10 11 10 10 10 10 12 14 17 15 11 11 12 11 10 10 12 11 10 nan
nan 10 12 12 12 11 10 11 11 12 11 9 8 6 5 9 10 8 12 12 8 10 11 11 11 11 11 11 11 10 11 15 15 13 12 11 11 12 11 10 12 12 nan
nan 13 12 10 10 11 12 11 9 11 10 9 10 11 11 9 8 9 10 10 10 10 10 10 11 11 11 11 12 11 11 11 14 16 13 11 11 11 11 11 11 13 nan
nan 11 10 10 13 12 11 10 11 11 10 10 8 8 13 12 9 9 10 11 11 10 11 11 11 11 11 12 12 11 11 12 13 17 18 12 10 11 11 11 12 12 nan
nan 11 11 13 11 11 11 11 12 11 10 10 8 7 9 11 9 9 9 9 11 11 11 11 11 11 11 10 10 11 11 14 12 11 10 18 21 12 12 11 11 11 nan
nan 12 12 11 11 10 10 11 11 11 10 10 10 9 8 9 9 9 8 9 10 11 11 12 12 11 10 11 12 11 11 10 9 11 12 10 15 20 14 11 11 10 nan
nan 12 10 10 10 9 10 10 10 11 10 10 10 10 9 9 9 10 11 10 9 10 11 11 9 9 11 10 11 11 9 5 10 9 13 15 10 8 17 19 12 10 nan
nan 11 10 11 11 10 10 10 10 10 10 9 10 11 11 10 10 11 11 10 10 10 10 12 9 7 8 11 11 5 6 11 14 14 15 14 14 14 12 10 17 20 nan
nan nan nan nan nan nan nan nan nan nan nan nan nan nan nan nan nan nan nan nan nan nan nan nan nan nan nan nan nan nan nan nan nan nan nan nan nan nan nan nan nan nan nan
CAPE
1789 2464 2646 2541 2644 2687 2740 2784 2110 1802 1358 882 92 837 1607 2077 2075 1765 1589 1344 991 569 176 37 63 0 0 0 0 0 0 0 0 0 0 0 0 0 0 0 0 0 0
2325 2428 2645 2862 2870 2862 2694 2710 2611 2175 1976 1662 1597 1915 1989 1982 2174 1886 1754 1784 1468 406 193 45 2 44 0 0 0 0 0 0 0 0 0 0 0 0 0 0 0 0 0
2546 2638 2599 2750 2884 2739 2638 2444 2379 2316 2002 2119 2157 2335 2260 2241 2391 2030 1196 174 2 2 0 0 0 0 0 21 42 35 0 0 0 0 0 0 0 0 0 0 0 0 0
2644 2705 2625 2664 2525 2034 1175 2194 2336 2334 2362 2069 2148 2463 2472 2401 2259 1230 0 0 2 2 5 2 0 0 0 72 21 59 3 0 0 0 0 0 0 0 0 0 0 0 0
2256 2480 2591 2421 2342 2154 1997 2005 1772 1468 2401 2558 2682 2673 2816 2470 2295 3 0 0 0 0 0 0 10 10 0 1 110 90 42 8 0 0 0 0 0 0 0 0 0 0 0
1422 1567 1572 1505 1369 1116 1048 912 1605 2931 2989 2844 2506 2315 2171 2211 414 8 0 8 0 0 0 0 0 7 12 0 0 0 0 12 2 0 0 0 0 0 0 0 0 0 0
1840 1855 1485 1157 1094 1735 2327 2557 2618 2678 2648 2937 2714 2391 2351 2227 221 52 5 0 0 0 0 0 0 0 0 0 0 0 3 0 0 0 1 8 0 0 0 0 0 0 0
1990 1882 1804 2199 2398 2642 3018 3200 2762 2614 2710 2623 2914 2474 2336 2140 500 63 8 0 0 0 0 0 0 0 0 0 0 0 0 0 0 0 0 0 28 32 10 1 0 0 0
2242 2418 2646 2496 2654 2930 2772 2765 1930 1446 1169 1062 1522 1009 873 1063 929 571 1 29 1 0 0 0 0 0 0 0 0 0 0 0 0 0 0 0 3 4 1 0 0 0 0
2888 2891 3210 3278 3180 2605 1238 1138 1334 1369 1348 1380 1545 1321 1294 896 998 277 1 38 73 39 1 0 0 0 0 0 0 0 0 0 0 0 0 0 0 0 0 0 1 0 0
3306 2957 2319 1707 1032 828 1000 1370 1467 1432 1449 1299 1151 1227 101 148 0 0 1 91 197 126 120 132 21 1 0 0 0 0 0 0 0 0 0 0 0 0 0 0 0 0 0
1664 1133 650 641 1041 1141 1503 1576 1224 1205 1320 1325 1386 29 0 0 1 1 1 50 0 14 70 113 223 204 0 0 0 0 0 0 0 0 0 0 0 0 0 0 0 0 0
1129 762 584 1221 1541 1388 1148 975 1268 1361 1245 383 28 0 0 15 0 0 1 1 0 0 0 1 1 11 2 1 0 0 0 0 0 0 0 0 0 0 0 0 0 0 0
939 822 808 903 760 897 1401 1555 1117 97 0 0 0 0 0 0 0 0 0 0 0 0 1 1 1 1 1 1 1 1 1 1 0 0 0 0 0 0 0 0 0 0 0
1062 1028 1027 1144 1207 777 675 275 0 0 0 0 0 0 0 0 0 0 0 0 0 0 1 0 1 1 0 0 0 1 1 1 1 0 0 0 0 0 0 0 0 0 0
1388 1127 513 213 53 4 0 0 0 0 0 0 0 0 0 0 1 1 1 1 0 1 0 0 1 4 4 0 0 0 1 1 1 1 1 0 0 0 0 0 0 0 0
743 254 16 0 0 0 0 0 0 0 0 0 0 0 0 0 0 0 0 0 0 0 0 0 0 1 5 9 15 1 0 0 0 1 1 1 1 1 0 0 0 0 0
56 0 0 0 0 0 0 0 0 0 0 0 0 0 0 0 0 0 0 0 0 0 0 0 0 1 4 7 6 22 19 17 1 1 1 1 1 1 1 1 0 0 0
0 0 0 0 0 0 0 0 0 0 0 0 0 0 0 0 0 0 0 0 0 0 4 5 5 7 7 5 10 16 14 24 26 3 1 1 1 2 1 1 1 0 0
0 0 0 0 0 0 0 0 0 0 0 0 0 0 0 0 0 0 1 1 2 3 5 4 4 4 4 6 9 9 8 8 10 36 13 2 3 1 1 1 1 0 0
0 0 0 0 0 0 0 0 0 0 0 0 0 0 0 0 0 0 0 0 2 1 2 4 3 4 5 8 8 8 10 10 11 14 51 5 0 4 1 1 0 0 0
0 0 0 0 0 0 0 0 0 0 0 0 0 0 0 0 0 0 0 0 0 1 2 4 4 2 4 10 10 13 11 9 12 3 2 16 46 3 2 0 1 1 0
0 0 0 0 0 0 0 0 0 0 0 0 0 0 0 0 0 0 0 0 0 1 0 1 2 3 4 4 5 7 12 8 3 5 5 6 10 35 8 1 0 0 0
0 0 0 0 0 0 0 0 0 0 0 0 0 0 0 0 0 0 0 0 0 1 1 1 2 4 4 4 3 4 8 1 2 2 7 7 6 5 18 14 1 1 0
0 0 0 0 0 0 0 0 0 0 0 0 0 0 0 0 0 0 0 0 0 0 0 1 1 1 2 2 3 3 0 0 1 0 3 5 6 5 6 7 41 6 1
0 0 0 0 0 0 0 0 0 0 0 0 0 0 0 0 0 0 0 0 0 0 0 0 0 2 2 1 1 0 0 1 0 0 1 1 2 6 3 7 5 25 5